Location: Brabourne
(51.1333°N, 1.0000°E)
Time: 08:42:46
(UTC+00:00)

USA 306 - Visible Passes

Search period start: 28 October 2021 00:00
Search period end: 07 November 2021 00:00
Orbit: 564 x 573 km, 54.0° (Epoch: 24 September)

Date Brightness Start Highest point End Pass type
(mag) Time Alt. Az. Time Alt. Az. Time Alt. Az.
28 Oct 5.7 03:01:09 14° E 03:01:09 14° E 03:02:06 10° E visible
28 Oct 2.9 04:37:11 49° SW 04:38:15 77° SSE 04:42:29 10° ENE visible
29 Oct 5.7 03:01:44 15° E 03:01:44 15° E 03:02:44 10° E visible
29 Oct 2.8 04:37:47 57° WSW 04:38:38 87° NNW 04:42:53 10° ENE visible
30 Oct 5.7 03:02:16 16° E 03:02:16 16° E 03:03:15 10° ENE visible
30 Oct 2.8 04:38:18 58° W 04:39:02 75° NNW 04:43:16 10° ENE visible
31 Oct 5.7 03:02:45 16° ENE 03:02:45 16° ENE 03:03:41 10° ENE visible
31 Oct 2.9 04:38:47 56° WNW 04:39:26 66° NNW 04:43:40 10° ENE visible
01 Nov 5.7 03:03:12 16° ENE 03:03:12 16° ENE 03:04:05 10° ENE visible
01 Nov 3.0 04:39:14 53° NW 04:39:51 60° N 04:44:04 10° ENE visible
02 Nov 5.8 03:03:37 15° ENE 03:03:37 15° ENE 03:04:27 10° ENE visible
02 Nov 3.1 04:39:39 51° NW 04:40:17 58° N 04:44:29 10° ENE visible
02 Nov 3.0 06:16:12 10° WNW 06:20:28 79° NNE 06:24:42 10° ESE visible
03 Nov 5.8 03:04:02 15° ENE 03:04:02 15° ENE 03:04:48 10° ENE visible
03 Nov 3.1 04:40:04 51° NW 04:40:42 57° N 04:44:53 10° E visible
03 Nov 2.9 06:16:34 10° WNW 06:20:49 87° SSW 06:25:03 10° ESE visible
04 Nov 5.8 03:04:26 15° ENE 03:04:26 15° ENE 03:05:10 10° ENE visible
04 Nov 3.1 04:40:28 52° NW 04:41:07 59° N 04:45:19 10° E visible
04 Nov 3.0 06:16:55 10° WNW 06:21:09 71° SSW 06:25:21 10° SE visible
05 Nov 5.9 03:04:51 14° ENE 03:04:51 14° ENE 03:05:31 10° ENE visible
05 Nov 3.0 04:40:53 55° NW 04:41:31 64° N 04:45:44 10° E visible
05 Nov 3.2 06:17:16 10° WNW 06:21:25 55° SSW 06:25:33 10° SE visible
06 Nov 5.9 03:05:16 14° ENE 03:05:16 14° ENE 03:05:54 10° ENE visible
06 Nov 2.9 04:41:18 61° NW 04:41:54 72° NNE 04:46:08 10° E visible
06 Nov 3.6 06:17:39 10° WNW 06:21:40 42° SW 06:25:39 10° SE visible
